Regional Weather Roundup
Issued by NWS

Home | Current Version | Previous Version | Graphics & Text | Print | Product List | Glossary Off
Versions: 1 2 3 4 5 6 7 8 9 10 11 12 13 14 15 16 17 18 19 20 21 22 23 24 25 26 27 28 29 30 31 32 33 34 35 36 37 38 39 40 41 42 43 44 45 46 47 48 49 50

000
ASUS43 KFSD 281802
RWRSD

WEATHER ROUNDUP FOR SOUTH DAKOTA
NATIONAL WEATHER SERVICE SIOUX FALLS SD
100 PM CDT SAT MAR 28 2015

NOTE: "FAIR" INDICATES FEW OR NO CLOUDS BELOW 12,000 FEET WITH NO
SIGNIFICANT WEATHER AND/OR OBSTRUCTIONS TO VISIBILITY.


SDZ001>005-009-010-012>017-281900-
NORTHWEST AND NORTH CENTRAL SOUTH DAKOTA

CITY           SKY/WX    TMP DP  RH WIND       PRES   REMARKS
BUFFALO          N/A     69  35  28 S17G23    29.68F
FAITH            N/A     62  34  35 S25G32    29.79F
MOBRIDGE       SUNNY     53  34  48 S23       29.84F
$$

SDZ012>016-024>037-041>051-057-063-072>074-281900-
SOUTHWEST AND SOUTH CENTRAL SOUTH DAKOTA

CITY           SKY/WX    TMP DP  RH WIND       PRES   REMARKS
RAPID CTY ARPT SUNNY     72  34  24 S17       29.80F
PIERRE         SUNNY     56  35  45 SE21      29.88F
CUSTER         SUNNY     65  28  24 SW12      29.90F
ELLSWORTH AFB  SUNNY     72  35  25 S17G23    29.78F
PHILIP         SUNNY     71  35  26 S15       29.82F
PINE RIDGE     SUNNY     73  34  23 SW13      29.86F
SPEARFISH      FAIR      72  34  25 CALM      29.81F
WINNER         FAIR      63  34  33 S17       29.93F
$$

SDZ004>011-016>023-039-040-281900-
NORTHEAST SOUTH DAKOTA

CITY           SKY/WX    TMP DP  RH WIND       PRES   REMARKS
ABERDEEN       SUNNY     48  29  47 S20G28    29.98F
WATERTOWN      MOSUNNY   43  26  51 S21G30    30.02F
SISSETON         N/A     41  33  73 S22G28    30.03F
$$

SDZ017-020-022-023-036>040-048>070-281900-
SOUTHEAST SOUTH DAKOTA

CITY           SKY/WX    TMP DP  RH WIND       PRES   REMARKS
SIOUX FALLS    MOSUNNY   45  26  47 S20       30.09F
HURON          SUNNY     47  29  49 S18G25    30.01F
MITCHELL       SUNNY     48  29  47 S22       30.04F
YANKTON        SUNNY     46  28  49 SE17G24   30.08F
$$

ABBREVIATIONS USED IN REMARKS
   TC - TEMPERATURE IN CELSIUS
  WCI - WIND CHILL INDEX
   HX - HEAT INDEX
  VSB - VISIBILITY



USA.gov is the U.S. government's official web portal to all federal, state and local government web resources and services.